LA5PPA-1 Weather Reports


Display with metric or nautical units.
time (UTC)temp
F
wind
direction
speed
MPH
gust
MPH
rain 1hr
in
rain 24hr
in
rain mn
in
humidity
%
barometer
mb
20260902071849 44 329 7.0 12.0 0.00 0.02 0.00 72 1011.0
20260902071349 44 312 2.0 9.0 0.00 0.02 0.00 72 1010.9
20260902071250 44 316 7.0 9.0 0.00 0.02 0.00 73 1010.9
20260902070849 44 322 1.0 7.0 0.00 0.02 0.00 74 1010.9
20260902070349 43 305 2.0 6.0 0.00 0.02 0.00 74 1010.9
20260902070150 43 309 2.0 7.0 0.00 0.02 0.00 74 1010.9
20260902065849 43 322 3.0 7.0 0.00 0.02 0.00 74 1010.9
20260902065349 43 330 5.0 7.0 0.00 0.02 0.00 75 1010.9
20260902065052 43 316 3.0 7.0 0.00 0.02 0.00 75 1010.9
20260902064849 43 323 3.0 6.0 0.00 0.02 0.00 75 1010.9
20260902064349 42 303 3.0 4.0 0.00 0.02 0.00 76 1010.9
20260902063950 42 309 2.0 3.0 0.00 0.02 0.00 76 1010.9
20260902063849 42 302 0.0 3.0 0.00 0.02 0.00 76 1010.9
20260902063349 42 296 0.0 3.0 0.00 0.02 0.00 77 1011.0
20260902062849 42 316 1.0 4.0 0.00 0.02 0.00 77 1010.9
20260902062349 42 233 0.0 1.0 0.00 0.02 0.00 78 1011.0
20260902061849 42 305 0.0 0.0 0.00 0.02 0.00 78 1010.9
20260902061750 41 305 0.0 5.0 0.00 0.02 0.00 78 1010.9
20260902061349 41 305 0.0 5.0 0.00 0.02 0.00 78 1011.0
20260902060849 41 271 0.0 3.0 0.00 0.02 0.00 79 1011.0
20260902060650 41 289 1.0 5.0 0.00 0.02 0.00 79 1011.0
20260902060349 41 226 3.0 5.0 0.00 0.02 0.00 79 1011.0
20260902055849 41 317 2.0 2.0 0.00 0.02 0.00 80 1011.0
20260902055550 41 299 0.0 2.0 0.00 0.02 0.00 80 1011.0
20260902055349 41 309 0.0 4.0 0.00 0.02 0.00 80 1011.0
20260902054849 41 302 0.0 4.0 0.00 0.02 0.00 81 1011.0
20260902054450 40 341 2.0 4.0 0.00 0.02 0.00 82 1010.9
20260902054349 40 333 2.0 4.0 0.00 0.02 0.00 82 1010.9
20260902053849 40 357 0.0 2.0 0.00 0.02 0.00 82 1010.9
20260902053349 41 267 1.0 2.0 0.00 0.02 0.00 82 1010.9
20260902052849 40 315 0.0 4.0 0.00 0.02 0.00 82 1010.9
20260902052349 40 300 1.0 3.0 0.00 0.02 0.00 82 1010.9
20260902052250 41 298 1.0 3.0 0.00 0.02 0.00 83 1011.0
20260902051849 41 279 0.0 4.0 0.00 0.02 0.00 83 1011.0
20260902051349 41 262 1.0 5.0 0.00 0.02 0.00 83 1011.0
20260902051150 41 296 2.0 5.0 0.00 0.02 0.00 83 1010.9
20260902050849 41 300 2.0 7.0 0.00 0.02 0.00 84 1010.9
20260902050349 41 293 1.0 7.0 0.00 0.03 0.00 84 1010.9
20260902050050 41 291 0.0 7.0 0.00 0.03 0.00 84 1010.9
20260902045849 41 274 3.0 4.0 0.00 0.03 0.00 85 1010.9
20260902045349 42 288 1.0 6.0 0.00 0.03 0.00 85 1010.8
20260902044950 42 293 2.0 6.0 0.00 0.03 0.00 85 1010.8
20260902044849 42 284 1.0 5.0 0.00 0.03 0.00 85 1010.8
20260902044349 42 278 1.0 5.0 0.00 0.03 0.00 85 1010.7
20260902043849 42 284 2.0 5.0 0.00 0.03 0.00 85 1010.7
20260902043349 42 306 2.0 2.0 0.00 0.03 0.00 85 1010.7
20260902042849 42 292 0.0 2.0 0.00 0.03 0.00 85 1010.7
20260902042750 42 292 0.0 4.0 0.00 0.03 0.00 85 1010.7
20260902042349 42 330 1.0 6.0 0.00 0.03 0.00 84 1010.7
20260902041849 42 288 4.0 4.0 0.00 0.03 0.00 84 1010.6
20260902041650 43 281 0.0 4.0 0.00 0.03 0.00 84 1010.6
20260902041349 43 293 2.0 4.0 0.00 0.03 0.00 84 1010.6
20260902040849 43 298 1.0 6.0 0.00 0.03 0.00 83 1010.6
20260902040550 43 279 2.0 6.0 0.00 0.03 0.00 83 1010.6
20260902040349 43 302 1.0 3.0 0.00 0.03 0.00 83 1010.7
20260902035849 43 323 0.0 4.0 0.00 0.03 0.00 82 1010.7
20260902035450 43 320 0.0 4.0 0.00 0.03 0.00 81 1010.6
20260902035349 43 288 2.0 5.0 0.00 0.03 0.00 81 1010.6
20260902034849 44 327 3.0 8.0 0.00 0.03 0.00 81 1010.6
20260902034349 44 310 2.0 9.0 0.00 0.03 0.00 81 1010.6
20260902033849 44 28 7.0 8.0 0.00 0.03 0.00 81 1010.6
20260902033349 44 0 0.0 6.0 0.00 0.03 0.00 81 1010.7
20260902033250 44 348 2.0 4.0 0.00 0.03 0.00 82 1010.7
20260902032849 45 350 0.0 8.0 0.00 0.03 0.00 81 1010.7
20260902032349 45 248 2.0 6.0 0.00 0.03 0.00 81 1010.7
20260902032151 45 322 2.0 6.0 0.00 0.03 0.00 81 1010.7
20260902031849 45 296 2.0 7.0 0.00 0.03 0.00 82 1010.7
20260902031349 45 288 6.0 9.0 0.00 0.03 0.00 82 1010.7
20260902031051 45 300 4.0 9.0 0.00 0.03 0.00 83 1010.7
20260902030849 45 331 3.0 9.0 0.00 0.03 0.00 83 1010.6
20260902030349 45 315 4.0 9.0 0.00 0.03 0.00 84 1010.6
20260902025951 46 295 4.0 8.0 0.00 0.03 0.00 84 1010.6
20260902025849 46 303 1.0 7.0 0.00 0.03 0.00 84 1010.6
20260902025349 46 333 4.0 6.0 0.00 0.03 0.00 83 1010.6
20260902024849 46 274 2.0 5.0 0.00 0.03 0.00 82 1010.4
20260902024349 46 215 3.0 5.0 0.00 0.03 0.00 82 1010.4
20260902023849 46 237 2.0 7.0 0.00 0.03 0.00 82 1010.3
20260902023751 46 284 2.0 7.0 0.00 0.03 0.00 82 1010.6
20260902023349 46 262 2.0 6.0 0.00 0.03 0.00 83 1010.6
20260902022849 46 272 5.0 5.0 0.00 0.03 0.00 83 1010.7
20260902022651 45 313 0.0 3.0 0.00 0.03 0.00 83 1010.7
20260902022349 45 281 1.0 5.0 0.00 0.03 0.00 83 1010.8
20260902021849 45 285 3.0 4.0 0.00 0.03 0.00 83 1010.8
20260902021551 45 291 0.0 2.0 0.00 0.03 0.00 82 1010.8
20260902021349 45 334 2.0 5.0 0.00 0.03 0.00 83 1010.8
20260902020849 46 313 0.0 1.0 0.00 0.03 0.00 83 1010.7
20260902020451 46 285 0.0 2.0 0.00 0.03 0.00 83 1010.7
20260902020349 46 285 0.0 2.0 0.00 0.03 0.00 83 1010.7
20260902015850 45 293 0.0 3.0 0.00 0.03 0.00 83 1010.7
20260902015350 45 279 0.0 1.0 0.00 0.03 0.00 83 1010.7
20260902014850 45 292 0.0 2.0 0.00 0.03 0.00 84 1010.7
20260902014350 45 82 0.0 2.0 0.00 0.03 0.00 84 1010.8
20260902014251 45 82 0.0 2.0 0.00 0.03 0.00 84 1010.7
20260902013850 45 213 0.0 1.0 0.00 0.03 0.00 84 1010.8
20260902013350 44 132 0.0 0.0 0.00 0.03 0.00 84 1010.8
20260902013151 44 132 0.0 0.0 0.00 0.03 0.00 84 1010.8
20260902012850 44 132 0.0 0.0 0.00 0.03 0.00 84 1010.8
20260902012350 44 132 0.0 0.0 0.00 0.03 0.00 84 1010.8
20260902012051 44 132 0.0 0.0 0.00 0.03 0.00 84 1010.8
20260902011850 44 132 0.0 0.0 0.00 0.03 0.00 84 1010.8
20260902011350 44 132 0.0 1.0 0.00 0.03 0.00 84 1010.7
20260902010951 44 149 0.0 2.0 0.00 0.03 0.00 84 1010.7
20260902010852 44 111 1.0 2.0 0.00 0.03 0.00 84 1010.7
20260902010350 43 105 1.0 2.0 0.00 0.03 0.00 84 1010.8
20260902005850 43 109 1.0 2.0 0.00 0.03 0.00 84 1010.8
20260902005350 43 157 0.0 0.0 0.00 0.03 0.00 83 1010.9
20260902004850 43 157 0.0 0.0 0.00 0.03 0.00 83 1010.9
20260902004751 43 157 0.0 0.0 0.00 0.03 0.00 83 1010.9
20260902004350 43 157 0.0 0.0 0.00 0.03 0.00 82 1011.0
20260902003850 44 157 0.0 0.0 0.00 0.03 0.00 82 1011.0
20260902003651 44 157 0.0 0.0 0.00 0.03 0.00 82 1011.0
20260902003350 44 157 0.0 2.0 0.00 0.03 0.00 82 1011.1
20260902002850 44 322 0.0 0.0 0.00 0.03 0.00 81 1011.0
20260902002551 44 322 0.0 0.0 0.00 0.03 0.00 81 1011.0
20260902002350 44 322 0.0 0.0 0.00 0.03 0.00 81 1011.0
20260902001850 44 322 0.0 0.0 0.00 0.03 0.00 81 1011.1
20260902001451 44 322 0.0 3.0 0.00 0.03 0.00 81 1011.1
20260902001350 44 322 0.0 3.0 0.00 0.03 0.00 81 1011.1
20260902000850 44 354 0.0 4.0 0.00 0.03 0.00 81 1011.1
20260902000352 44 254 4.0 4.0 0.00 0.03 0.00 81 1011.2
20260901235850 44 205 0.0 1.0 0.00 0.03 0.00 80 1011.3
20260901235350 44 296 1.0 1.0 0.00 0.03 0.00 80 1011.5
20260901235251 45 167 1.0 1.0 0.00 0.03 0.00 80 1011.3
20260901234850 45 167 0.0 0.0 0.00 0.03 0.00 80 1011.5
20260901234350 45 279 0.0 2.0 0.00 0.03 0.00 80 1011.5
20260901234151 45 279 0.0 2.0 0.00 0.03 0.00 80 1011.6
20260901233850 45 281 2.0 2.0 0.00 0.03 0.00 80 1011.6
20260901233350 45 303 0.0 0.0 0.00 0.03 0.00 80 1011.6
20260901233051 45 303 0.0 0.0 0.00 0.03 0.00 79 1011.6
20260901232850 45 303 0.0 0.0 0.00 0.03 0.00 79 1011.6
20260901232350 46 303 0.0 0.0 0.00 0.03 0.00 79 1011.6
20260901231951 46 303 0.0 0.0 0.00 0.03 0.00 79 1011.7
20260901231850 46 303 0.0 0.0 0.00 0.03 0.00 79 1011.7
20260901231350 46 303 0.0 0.0 0.00 0.03 0.00 79 1011.6
20260901230850 46 303 0.0 0.0 0.00 0.03 0.00 78 1011.7
20260901230350 46 303 0.0 0.0 0.00 0.03 0.00 77 1011.6
20260901225850 46 303 0.0 0.0 0.00 0.03 0.00 76 1011.7
20260901225751 46 303 0.0 0.0 0.00 0.03 0.00 76 1011.7
20260901225350 46 303 0.0 0.0 0.00 0.03 0.00 76 1011.7
20260901224850 46 303 0.0 0.0 0.00 0.03 0.00 76 1011.7
20260901224651 46 303 0.0 0.0 0.00 0.03 0.00 75 1011.8
20260901224350 47 303 0.0 0.0 0.00 0.03 0.00 75 1011.8
20260901223850 47 303 0.0 0.0 0.00 0.03 0.00 74 1011.9
20260901223551 47 303 0.0 0.0 0.00 0.03 0.00 74 1011.9
20260901223350 47 303 0.0 3.0 0.00 0.03 0.00 74 1011.8
20260901222850 47 319 1.0 4.0 0.00 0.03 0.00 74 1011.9
20260901222451 47 236 3.0 5.0 0.00 0.03 0.00 73 1011.9
20260901222350 47 298 2.0 5.0 0.00 0.03 0.00 73 1011.9
20260901221850 47 277 0.0 7.0 0.00 0.03 0.00 73 1011.9
20260901221350 47 336 0.0 3.0 0.00 0.03 0.00 73 1011.9
20260901220850 47 272 1.0 4.0 0.00 0.03 0.00 73 1011.9
20260901220350 47 257 1.0 6.0 0.00 0.03 0.00 73 1011.9
20260901220251 47 222 2.0 6.0 0.00 0.03 0.00 73 1011.9
20260901215850 47 189 0.0 5.0 0.00 0.03 0.00 74 1011.9
20260901215350 47 223 4.0 6.0 0.00 0.03 0.00 74 1011.9
20260901215151 47 237 3.0 5.0 0.00 0.03 0.00 74 1011.9
20260901214850 47 265 3.0 5.0 0.00 0.03 0.03 74 1011.9
20260901214350 46 244 2.0 7.0 0.00 0.03 0.03 75 1012.0
20260901214051 46 272 3.0 7.0 0.00 0.03 0.03 76 1012.0
20260901213850 46 240 1.0 7.0 0.00 0.03 0.03 76 1012.0
20260901213350 46 258 3.0 5.0 0.00 0.03 0.03 76 1012.1
20260901212951 46 264 3.0 5.0 0.00 0.03 0.03 77 1012.0
20260901212850 46 270 1.0 5.0 0.00 0.03 0.03 77 1012.0
20260901212350 46 310 3.0 6.0 0.00 0.03 0.03 78 1012.0
20260901211850 46 281 2.0 5.0 0.00 0.03 0.03 78 1012.1
20260901211350 46 257 2.0 4.0 0.00 0.03 0.03 78 1012.0
20260901210850 46 248 0.0 4.0 0.00 0.03 0.03 78 1012.1
20260901210751 46 275 1.0 6.0 0.00 0.03 0.03 78 1012.1
20260901210350 46 303 0.0 8.0 0.00 0.03 0.03 78 1012.1
20260901205850 46 264 3.0 7.0 0.00 0.03 0.03 80 1012.1
20260901205651 46 274 6.0 6.0 0.00 0.03 0.03 81 1012.1
20260901205350 46 270 0.0 6.0 0.00 0.03 0.03 81 1012.2
20260901204850 46 271 1.0 2.0 0.00 0.03 0.03 82 1012.1
20260901204551 46 122 0.0 3.0 0.00 0.03 0.03 82 1012.2
20260901204350 46 284 0.0 3.0 0.00 0.03 0.03 82 1012.2
20260901203850 45 84 1.0 4.0 0.00 0.03 0.03 83 1012.1
20260901203451 45 264 0.0 8.0 0.00 0.03 0.03 84 1012.2
20260901203350 45 195 2.0 8.0 0.00 0.03 0.03 84 1012.2
20260901202850 45 147 1.0 2.0 0.00 0.03 0.03 84 1012.4
20260901202350 45 106 0.0 0.0 0.00 0.03 0.03 84 1012.2
20260901201850 45 106 0.0 3.0 0.00 0.03 0.03 83 1012.2
20260901201350 46 32 0.0 1.0 0.00 0.03 0.03 83 1012.4
20260901201251 46 32 0.0 1.0 0.00 0.03 0.03 83 1012.4
20260901200850 46 32 0.0 0.0 0.00 0.03 0.03 83 1012.2
20260901200350 46 32 0.0 2.0 0.00 0.03 0.03 83 1012.4
20260901200151 46 272 0.0 2.0 0.00 0.03 0.03 83 1012.4
20260901195850 46 168 0.0 0.0 0.00 0.03 0.03 83 1012.5
20260901195350 47 168 0.0 3.0 0.00 0.03 0.03 83 1012.5
20260901195051 47 123 2.0 3.0 0.00 0.03 0.03 84 1012.5
20260901194850 47 68 0.0 0.0 0.00 0.03 0.03 83 1012.5
20260901194350 47 68 0.0 0.0 0.00 0.03 0.03 83 1012.5
20260901193951 47 68 0.0 0.0 0.00 0.03 0.03 83 1012.4
20260901193850 47 68 0.0 0.0 0.00 0.03 0.03 83 1012.4
20260901193350 47 68 0.0 0.0 0.00 0.03 0.03 82 1012.5
20260901192850 48 68 0.0 0.0 0.00 0.03 0.03 82 1012.4
20260901192350 48 68 0.0 0.0 0.00 0.03 0.03 81 1012.5
20260901191850 49 68 0.0 0.0 0.00 0.03 0.03 81 1012.5
20260901191751 49 68 0.0 0.0 0.00 0.03 0.03 81 1012.4
20260901191350 49 68 0.0 0.0 0.00 0.03 0.03 81 1012.4
20260901190850 49 68 0.0 0.0 0.00 0.03 0.03 80 1012.5
20260901190651 50 68 0.0 0.0 0.00 0.03 0.03 80 1012.5
20260901190350 50 68 0.0 0.0 0.00 0.03 0.03 80 1012.6
20260901185850 50 68 0.0 0.0 0.00 0.03 0.03 79 1012.6
20260901185551 50 68 0.0 0.0 0.00 0.03 0.03 79 1012.6
20260901185350 50 68 0.0 1.0 0.00 0.03 0.03 80 1012.6
20260901184850 50 104 0.0 0.0 0.00 0.03 0.03 80 1012.6
20260901184451 51 104 0.0 0.0 0.00 0.03 0.03 80 1012.6
20260901184350 51 104 0.0 2.0 0.00 0.03 0.03 80 1012.5
20260901183850 51 157 0.0 2.0 0.01 0.03 0.03 80 1012.5
20260901183350 51 281 0.0 1.0 0.02 0.03 0.03 80 1012.5
20260901182850 51 25 0.0 1.0 0.02 0.03 0.03 79 1012.5
20260901182350 52 75 0.0 1.0 0.02 0.03 0.03 78 1012.1
20260901182251 52 284 0.0 1.0 0.02 0.03 0.03 78 1012.4
20260901181850 52 284 0.0 2.0 0.02 0.03 0.03 77 1012.4
20260901181350 52 286 0.0 0.0 0.02 0.03 0.03 78 1012.4
20260901181151 52 286 0.0 2.0 0.02 0.03 0.03 77 1012.4
20260901180850 53 286 0.0 2.0 0.02 0.03 0.03 77 1012.5
20260901180350 53 106 1.0 2.0 0.02 0.03 0.03 76 1012.4
20260901180051 53 68 0.0 2.0 0.02 0.03 0.03 76 1012.4
20260901175850 53 151 2.0 2.0 0.02 0.03 0.03 77 1012.5
20260901175351 53 237 0.0 3.0 0.02 0.03 0.03 76 1012.5
20260901174951 53 202 0.0 4.0 0.02 0.03 0.03 76 1012.6
20260901174850 53 210 2.0 4.0 0.02 0.03 0.03 76 1012.6
20260901174350 54 18 2.0 6.0 0.02 0.03 0.03 74 1012.7
20260901173850 54 358 1.0 8.0 0.01 0.02 0.02 72 1012.8
20260901173350 54 285 8.0 9.0 0.00 0.01 0.01 71 1012.7
20260901172850 55 285 2.0 6.0 0.00 0.01 0.01 72 1012.5
20260901172751 55 296 1.0 6.0 0.00 0.01 0.01 72 1012.5
20260901172350 55 195 0.0 5.0 0.00 0.01 0.01 72 1012.5
20260901171850 56 340 0.0 5.0 0.00 0.01 0.01 72 1012.4
20260901171651 56 293 1.0 4.0 0.00 0.01 0.01 71 1012.4
20260901171350 56 205 3.0 5.0 0.00 0.01 0.01 70 1012.4
20260901170850 56 272 2.0 2.0 0.00 0.01 0.01 71 1012.4
20260901170551 56 264 1.0 2.0 0.00 0.01 0.01 70 1012.4
20260901170350 56 316 0.0 3.0 0.00 0.01 0.01 70 1012.4
20260901165850 57 87 2.0 6.0 0.00 0.01 0.01 70 1012.4
20260901165451 57 226 2.0 7.0 0.00 0.01 0.01 69 1012.2
20260901165350 57 172 2.0 7.0 0.00 0.01 0.01 69 1012.2
20260901164850 57 101 1.0 4.0 0.00 0.01 0.01 68 1012.2
20260901164350 58 265 2.0 6.0 0.00 0.01 0.01 68 1012.4
20260901163850 58 63 1.0 7.0 0.00 0.01 0.01 68 1012.2
20260901163351 59 285 0.0 5.0 0.00 0.01 0.01 66 1012.2
20260901163252 59 234 0.0 5.0 0.00 0.01 0.01 66 1012.2
20260901162851 59 323 0.0 6.0 0.00 0.01 0.01 66 1012.2
20260901162351 59 212 1.0 8.0 0.00 0.01 0.01 64 1012.4
20260901162151 60 188 4.0 7.0 0.00 0.01 0.01 65 1012.4
20260901161850 60 106 1.0 5.0 0.00 0.01 0.01 64 1012.4
20260901161351 59 310 0.0 4.0 0.00 0.01 0.01 65 1012.4
20260901161051 59 104 1.0 5.0 0.00 0.01 0.01 66 1012.4
20260901160851 59 142 0.0 9.0 0.00 0.01 0.01 66 1012.4
20260901160351 59 11 2.0 6.0 0.00 0.01 0.01 68 1012.4
20260901155951 58 119 1.0 8.0 0.00 0.01 0.01 69 1012.4
20260901155851 58 247 1.0 8.0 0.00 0.01 0.01 68 1012.4
20260901155351 59 30 1.0 7.0 0.00 0.01 0.01 67 1012.5
20260901154851 59 68 2.0 4.0 0.00 0.01 0.01 66 1012.5
20260901154351 59 292 1.0 5.0 0.00 0.01 0.01 66 1012.5
20260901153851 59 161 0.0 10.0 0.00 0.01 0.01 66 1012.1
20260901153751 59 132 2.0 10.0 0.00 0.01 0.01 66 1012.5
20260901153351 59 324 0.0 6.0 0.00 0.01 0.01 66 1012.5
20260901152851 59 226 2.0 8.0 0.00 0.01 0.01 67 1012.5
20260901152651 59 68 1.0 8.0 0.00 0.01 0.01 67 1012.5
20260901152351 59 165 6.0 8.0 0.00 0.01 0.01 67 1012.5
20260901151851 59 201 5.0 8.0 0.00 0.01 0.01 67 1012.6
20260901151552 59 161 1.0 5.0 0.00 0.01 0.01 66 1012.6
20260901151351 59 189 2.0 5.0 0.00 0.01 0.01 66 1012.6
20260901150851 59 232 3.0 7.0 0.00 0.01 0.01 65 1012.6
20260901150451 60 147 6.0 7.0 0.00 0.01 0.01 64 1012.6
20260901150351 60 208 3.0 7.0 0.00 0.01 0.01 64 1012.6
20260901145851 60 157 6.0 6.0 0.00 0.01 0.01 64 1012.7
20260901145351 60 286 1.0 5.0 0.00 0.01 0.01 63 1012.7
20260901144851 61 253 0.0 10.0 0.00 0.01 0.01 63 1012.7
20260901144351 61 239 0.0 8.0 0.00 0.01 0.01 63 1012.5
20260901144252 61 73 0.0 8.0 0.00 0.01 0.01 63 1012.7
20260901143851 61 101 4.0 6.0 0.00 0.01 0.01 62 1012.7
20260901143351 61 26 0.0 7.0 0.00 0.01 0.01 62 1012.8
20260901143152 61 108 0.0 3.0 0.00 0.01 0.01 63 1012.8
20260901142851 60 50 0.0 3.0 0.00 0.01 0.01 63 1012.8
20260901142351 60 317 1.0 5.0 0.00 0.01 0.01 62 1012.8
20260901142052 61 333 0.0 6.0 0.00 0.01 0.01 61 1012.8
20260901141851 61 59 1.0 6.0 0.00 0.01 0.01 61 1012.8
20260901141351 61 165 0.0 8.0 0.00 0.01 0.01 61 1012.8
20260901140952 61 264 3.0 6.0 0.00 0.01 0.01 60 1012.8
20260901140851 61 246 1.0 6.0 0.00 0.01 0.01 60 1012.7
20260901140351 61 171 0.0 6.0 0.00 0.01 0.01 59 1012.8
20260901135851 61 254 0.0 5.0 0.00 0.01 0.01 59 1012.8
20260901135351 61 213 0.0 3.0 0.00 0.01 0.01 57 1012.9
20260901134851 61 182 0.0 7.0 0.00 0.01 0.01 58 1012.7
20260901134752 61 182 0.0 7.0 0.00 0.01 0.01 57 1012.9
20260901134351 61 192 2.0 6.0 0.00 0.01 0.01 55 1013.0
20260901133851 61 135 0.0 4.0 0.00 0.01 0.01 53 1013.0
20260901133652 61 199 0.0 3.0 0.00 0.01 0.01 54 1013.0
20260901133351 61 248 0.0 4.0 0.00 0.01 0.01 54 1013.0
20260901132851 61 215 1.0 9.0 0.00 0.01 0.01 55 1013.0
20260901132552 61 143 5.0 5.0 0.00 0.01 0.01 56 1012.9
20260901132351 61 130 3.0 4.0 0.00 0.01 0.01 57 1012.9
20260901131851 61 284 0.0 2.0 0.00 0.01 0.01 55 1013.0
20260901131452 61 98 0.0 3.0 0.00 0.01 0.01 56 1013.0
20260901131351 61 143 2.0 3.0 0.00 0.01 0.01 56 1013.0
20260901130851 61 115 0.0 3.0 0.00 0.01 0.01 56 1013.1
20260901130351 61 340 0.0 1.0 0.00 0.01 0.01 54 1013.3
20260901125851 62 208 0.0 3.0 0.00 0.01 0.01 55 1013.1
20260901125351 62 180 1.0 4.0 0.00 0.01 0.01 54 1013.1
20260901125252 62 175 1.0 4.0 0.00 0.01 0.01 54 1013.1
20260901124851 62 291 0.0 4.0 0.00 0.01 0.01 54 1013.1
20260901124351 62 247 0.0 2.0 0.00 0.01 0.01 52 1013.1
20260901124152 62 265 0.0 2.0 0.00 0.01 0.01 51 1013.1
20260901123851 62 257 0.0 3.0 0.00 0.01 0.01 51 1013.1
20260901123351 62 174 3.0 5.0 0.00 0.01 0.01 51 1013.1
20260901123052 62 264 0.0 5.0 0.00 0.01 0.01 50 1013.1
20260901122851 62 241 1.0 3.0 0.00 0.01 0.01 50 1013.1
20260901122351 63 302 0.0 3.0 0.00 0.01 0.01 50 1013.3
20260901121952 62 302 0.0 4.0 0.00 0.01 0.01 51 1013.1
20260901121851 62 163 1.0 4.0 0.00 0.01 0.01 52 1013.3
20260901121351 62 272 3.0 6.0 0.00 0.01 0.01 50 1013.3
20260901120851 62 250 0.0 5.0 0.00 0.01 0.01 51 1013.3
20260901120351 62 188 1.0 6.0 0.00 0.01 0.01 51 1013.3
20260901115851 62 320 0.0 7.0 0.00 0.01 0.01 50 1013.3
20260901115752 62 296 4.0 7.0 0.00 0.01 0.01 51 1013.3
20260901115351 62 291 5.0 7.0 0.00 0.01 0.01 51 1013.3
20260901114851 62 223 6.0 6.0 0.00 0.01 0.01 54 1013.3
20260901114652 62 125 0.0 4.0 0.00 0.01 0.01 53 1013.3
20260901114351 61 282 0.0 5.0 0.00 0.01 0.01 53 1013.3
20260901113851 61 265 4.0 6.0 0.00 0.01 0.01 53 1013.4
20260901113552 61 289 1.0 6.0 0.00 0.01 0.01 54 1013.4
20260901113351 61 299 3.0 6.0 0.00 0.01 0.01 52 1013.4
20260901112851 62 316 4.0 5.0 0.00 0.01 0.01 51 1013.4
20260901112452 61 299 3.0 3.0 0.00 0.01 0.01 52 1013.4
20260901112351 61 291 1.0 4.0 0.00 0.01 0.01 55 1013.4
20260901111851 61 234 4.0 6.0 0.00 0.01 0.01 54 1013.4
20260901111351 60 236 1.0 6.0 0.00 0.01 0.01 52 1013.4
20260901110851 60 243 3.0 5.0 0.00 0.01 0.01 54 1013.5
20260901110351 60 300 1.0 4.0 0.00 0.01 0.01 57 1013.4
20260901110252 60 284 2.0 7.0 0.00 0.01 0.01 57 1013.5
20260901105851 59 261 2.0 8.0 0.00 0.01 0.01 56 1013.5
20260901105351 59 319 5.0 6.0 0.00 0.01 0.01 57 1013.5
20260901105152 59 326 1.0 5.0 0.00 0.01 0.01 55 1013.5
20260901104851 59 333 2.0 4.0 0.00 0.01 0.01 58 1013.5
20260901104351 59 326 0.0 3.0 0.00 0.01 0.01 58 1013.5
20260901104052 59 279 0.0 3.0 0.00 0.01 0.01 56 1013.5
20260901103851 59 285 0.0 3.0 0.00 0.01 0.01 58 1013.5
20260901103351 59 288 0.0 4.0 0.00 0.01 0.01 59 1013.6
20260901102952 59 334 2.0 3.0 0.00 0.01 0.01 59 1013.5
20260901102851 59 247 0.0 3.0 0.00 0.01 0.01 59 1013.5
20260901102351 59 278 0.0 2.0 0.00 0.01 0.01 56 1013.5
20260901101851 60 302 0.0 5.0 0.00 0.01 0.01 56 1013.5
20260901101351 59 53 0.0 2.0 0.00 0.01 0.01 59 1013.5
20260901100851 59 279 1.0 3.0 0.00 0.01 0.01 61 1013.1
20260901100752 59 223 0.0 3.0 0.00 0.01 0.01 60 1013.5
20260901100351 58 227 0.0 1.0 0.00 0.01 0.01 60 1013.5
20260901095851 58 281 0.0 3.0 0.00 0.01 0.01 58 1013.5
20260901095652 58 258 2.0 3.0 0.00 0.01 0.01 59 1013.5
20260901095351 58 289 0.0 3.0 0.00 0.01 0.01 59 1013.5
20260901094851 58 264 0.0 2.0 0.00 0.01 0.01 61 1013.5
20260901094552 57 298 0.0 4.0 0.00 0.01 0.01 60 1013.5
20260901094351 57 298 0.0 6.0 0.00 0.01 0.01 58 1013.5
20260901093851 57 310 0.0 4.0 0.00 0.01 0.01 60 1013.5
20260901093452 57 285 0.0 6.0 0.00 0.01 0.01 60 1013.5
20260901093351 57 305 1.0 6.0 0.00 0.01 0.01 60 1013.5
20260901092851 57 315 0.0 0.0 0.00 0.01 0.01 62 1013.5
20260901092351 57 315 0.0 4.0 0.00 0.01 0.01 64 1013.6
20260901091851 56 336 0.0 3.0 0.00 0.01 0.01 62 1013.5
20260901091351 56 288 0.0 4.0 0.00 0.01 0.01 62 1013.6
20260901091252 56 282 1.0 4.0 0.00 0.01 0.01 62 1013.5
20260901090851 56 334 0.0 2.0 0.00 0.01 0.01 62 1013.5
20260901090351 55 320 0.0 1.0 0.00 0.01 0.01 64 1013.5
20260901090152 55 312 1.0 1.0 0.00 0.01 0.01 64 1013.6
20260901085851 55 282 0.0 1.0 0.00 0.01 0.01 62 1013.6
20260901085351 55 324 0.0 0.0 0.00 0.01 0.01 64 1013.6
20260901085052 55 324 0.0 0.0 0.00 0.01 0.01 65 1013.6
20260901084851 54 324 0.0 0.0 0.00 0.01 0.01 66 1013.6
20260901084351 54 324 0.0 2.0 0.00 0.01 0.01 64 1013.6
20260901083953 54 324 0.0 2.0 0.00 0.01 0.01 65 1013.6
20260901083851 54 312 2.0 2.0 0.00 0.01 0.01 65 1013.7
20260901083351 54 315 0.0 4.0 0.00 0.01 0.01 67 1013.7
20260901082851 54 289 0.0 2.0 0.00 0.01 0.01 70 1013.7
20260901082351 54 272 0.0 2.0 0.00 0.01 0.01 71 1013.7
20260901081851 53 315 2.0 2.0 0.00 0.01 0.01 73 1013.7
20260901081752 53 213 0.0 0.0 0.00 0.01 0.01 73 1013.7
20260901081351 53 213 0.0 0.0 0.00 0.01 0.01 76 1013.7
20260901080851 52 213 0.0 0.0 0.00 0.01 0.01 78 1013.7
20260901080652 52 213 0.0 0.0 0.00 0.01 0.01 79 1013.7
20260901080351 51 213 0.0 0.0 0.00 0.01 0.01 80 1013.7
20260901075851 51 213 0.0 0.0 0.00 0.01 0.01 81 1013.7
20260901075552 50 213 0.0 0.0 0.00 0.01 0.01 81 1013.7
20260901075351 50 213 0.0 0.0 0.00 0.01 0.01 82 1013.6
20260901074851 50 213 0.0 2.0 0.00 0.01 0.01 83 1013.7
20260901074452 50 272 0.0 1.0 0.00 0.01 0.01 84 1013.7
20260901074351 50 246 0.0 0.0 0.00 0.01 0.01 84 1013.7
20260901073851 49 246 0.0 0.0 0.00 0.01 0.01 86 1013.7
20260901073351 49 246 0.0 0.0 0.00 0.01 0.01 87 1013.7
20260901072851 48 246 0.0 0.0 0.00 0.01 0.01 89 1013.7
20260901072351 48 246 0.0 3.0 0.00 0.01 0.01 90 1013.7